Location: Killam
(52.7910°N, 111.8608°W)
Time: 22:36:03
(UTC+00:00)

Vanguard 3 - Pass Details

Date: 17 February 2026
Orbit: 507 x 3205 km, 33.4° (Epoch: 11 March)

Event Time Altitude Azimuth Distance (km) Brightness Sun altitude
Rises 23:16:24 0° 214° (SW) 5,335 12.9 10.9°
Reaches altitude 10° 23:23:50 10° 184° (S) 3,520 11.1 10.0°
Maximum altitude 23:25:51 11° 171° (S) 3,215 10.6 9.7°
Drops below altitude 10° 23:27:41 10° 157° (SSE) 3,077 10.3 9.5°
Sets 23:32:30 0° 121° (ESE) 3,475 10.1 8.9°
